TimeMDT,TemperatureF,Dew PointF,Humidity,Sea Level PressureIn,VisibilityMPH,Wind Direction,Wind SpeedMPH,Gust SpeedMPH,PrecipitationIn,Events,Conditions,WindDirDegrees,DateUTC
12:35 AM,60.8,51.8,72,30.17,10.0,ENE,6.9,-,N/A,,Clear,60,2013-06-30 06:35:00
12:55 AM,62.6,53.6,72,30.17,10.0,NE,6.9,-,N/A,,Clear,50,2013-06-30 06:55:00
1:15 AM,62.6,53.6,72,30.17,10.0,NE,5.8,-,N/A,,Clear,40,2013-06-30 07:15:00
1:35 AM,57.2,51.8,82,30.17,10.0,Calm,Calm,-,N/A,,Clear,0,2013-06-30 07:35:00
1:55 AM,57.2,51.8,82,30.17,10.0,Calm,Calm,-,N/A,,Clear,0,2013-06-30 07:55:00
2:15 AM,55.4,48.2,77,30.18,10.0,WSW,3.5,-,N/A,,Clear,250,2013-06-30 08:15:00
2:35 AM,53.6,50.0,88,30.18,10.0,NW,4.6,-,N/A,,Clear,320,2013-06-30 08:35:00
3:15 AM,57.2,51.8,82,30.18,10.0,NNE,5.8,-,N/A,,Clear,20,2013-06-30 09:15:00
3:55 AM,53.6,48.2,82,30.18,10.0,NNE,4.6,-,N/A,,Clear,30,2013-06-30 09:55:00
4:15 AM,55.4,50.0,82,30.19,10.0,NNE,4.6,-,N/A,,Clear,30,2013-06-30 10:15:00
4:35 AM,55.4,50.0,82,30.19,10.0,NNE,5.8,-,N/A,,Clear,20,2013-06-30 10:35:00
4:36 AM,55.4,50.0,82,30.19,10.0,NNE,5.8,-,N/A,,Clear,20,2013-06-30 10:36:00
4:55 AM,55.4,50.0,82,30.19,10.0,NE,5.8,-,N/A,,Clear,40,2013-06-30 10:55:00
5:15 AM,53.6,50.0,88,30.19,10.0,NE,6.9,-,N/A,,Clear,50,2013-06-30 11:15:00
5:36 AM,55.4,51.8,88,30.19,10.0,NNE,3.5,-,N/A,,Clear,30,2013-06-30 11:36:00
5:55 AM,55.4,51.8,88,30.20,10.0,NE,4.6,-,N/A,,Clear,40,2013-06-30 11:55:00
6:15 AM,57.2,51.8,82,30.20,10.0,ENE,5.8,-,N/A,,Clear,60,2013-06-30 12:15:00
6:35 AM,59.0,53.6,82,30.20,10.0,ENE,4.6,-,N/A,,Clear,60,2013-06-30 12:35:00
6:55 AM,60.8,53.6,77,30.20,10.0,ENE,4.6,-,N/A,,Clear,60,2013-06-30 12:55:00
7:15 AM,62.6,53.6,72,30.20,10.0,East,3.5,-,N/A,,Clear,90,2013-06-30 13:15:00
7:35 AM,64.4,53.6,68,30.20,10.0,ESE,4.6,-,N/A,,Clear,120,2013-06-30 13:35:00
7:55 AM,66.2,55.4,68,30.20,10.0,SE,3.5,-,N/A,,Clear,140,2013-06-30 13:55:00
8:15 AM,66.2,53.6,64,30.20,10.0,SSE,3.5,-,N/A,,Clear,150,2013-06-30 14:15:00
8:35 AM,68.0,53.6,60,30.20,10.0,ESE,3.5,-,N/A,,Clear,120,2013-06-30 14:35:00
9:15 AM,69.8,55.4,60,30.20,10.0,East,8.1,-,N/A,,Clear,80,2013-06-30 15:15:00
9:35 AM,71.6,57.2,60,30.20,10.0,East,8.1,-,N/A,,Clear,100,2013-06-30 15:35:00
10:15 AM,71.6,55.4,57,30.20,10.0,ENE,9.2,-,N/A,,Clear,60,2013-06-30 16:15:00
10:35 AM,73.4,55.4,53,30.20,10.0,East,8.1,-,N/A,,Clear,80,2013-06-30 16:35:00
10:55 AM,73.4,55.4,53,30.20,10.0,ENE,5.8,-,N/A,,Clear,70,2013-06-30 16:55:00
11:15 AM,75.2,55.4,50,30.20,10.0,East,5.8,-,N/A,,Clear,90,2013-06-30 17:15:00
11:35 AM,77.0,55.4,47,30.20,10.0,East,11.5,-,N/A,,Clear,90,2013-06-30 17:35:00
11:55 AM,75.2,53.6,47,30.20,10.0,ESE,10.4,-,N/A,,Clear,110,2013-06-30 17:55:00
12:15 PM,78.8,53.6,42,30.20,10.0,SE,4.6,-,N/A,,Clear,130,2013-06-30 18:15:00
12:35 PM,75.2,51.8,44,30.20,10.0,SE,4.6,-,N/A,,Clear,130,2013-06-30 18:35:00
12:55 PM,78.8,51.8,39,30.20,10.0,East,10.4,-,N/A,,Clear,100,2013-06-30 18:55:00
1:15 PM,78.8,51.8,39,30.20,10.0,ESE,9.2,-,N/A,,Clear,120,2013-06-30 19:15:00
1:35 PM,78.8,53.6,42,30.19,10.0,ESE,9.2,-,N/A,,Scattered Clouds,120,2013-06-30 19:35:00
1:55 PM,78.8,53.6,42,30.19,10.0,East,11.5,-,N/A,,Scattered Clouds,90,2013-06-30 19:55:00
2:15 PM,78.8,51.8,39,30.19,10.0,East,9.2,-,N/A,,Clear,80,2013-06-30 20:15:00
2:35 PM,80.6,53.6,39,30.19,10.0,ENE,11.5,16.1,N/A,,Clear,70,2013-06-30 20:35:00
2:55 PM,80.6,51.8,37,30.18,10.0,East,8.1,-,N/A,,Clear,100,2013-06-30 20:55:00
3:15 PM,82.4,51.8,35,30.18,10.0,East,9.2,-,N/A,,Clear,100,2013-06-30 21:15:00
3:35 PM,80.6,51.8,37,30.18,10.0,SE,5.8,-,N/A,,Clear,130,2013-06-30 21:35:00
3:55 PM,78.8,51.8,39,30.18,10.0,ESE,11.5,-,N/A,,Clear,110,2013-06-30 21:55:00
4:15 PM,80.6,53.6,39,30.18,10.0,ESE,8.1,-,N/A,,Partly Cloudy,120,2013-06-30 22:15:00
4:35 PM,80.6,53.6,39,30.17,10.0,ESE,8.1,-,N/A,,Partly Cloudy,120,2013-06-30 22:35:00
4:55 PM,82.4,53.6,37,30.17,10.0,East,12.7,-,N/A,,Partly Cloudy,90,2013-06-30 22:55:00
5:15 PM,80.6,53.6,39,30.17,10.0,East,9.2,-,N/A,,Partly Cloudy,90,2013-06-30 23:15:00
5:35 PM,78.8,53.6,42,30.16,10.0,East,13.8,-,N/A,,Scattered Clouds,100,2013-06-30 23:35:00
5:55 PM,78.8,53.6,42,30.16,10.0,East,11.5,-,N/A,,Partly Cloudy,100,2013-06-30 23:55:00
6:15 PM,78.8,53.6,42,30.16,10.0,East,11.5,-,N/A,,Clear,100,2013-07-01 00:15:00
6:35 PM,80.6,53.6,39,30.16,10.0,East,11.5,-,N/A,,Clear,80,2013-07-01 00:35:00
6:55 PM,78.8,53.6,42,30.17,10.0,East,11.5,-,N/A,,Clear,90,2013-07-01 00:55:00
7:15 PM,78.8,53.6,42,30.17,10.0,ESE,10.4,-,N/A,,Clear,110,2013-07-01 01:15:00
7:35 PM,78.8,53.6,42,30.17,10.0,East,9.2,-,N/A,,Clear,100,2013-07-01 01:35:00
7:55 PM,77.0,53.6,44,30.17,10.0,ESE,8.1,-,N/A,,Clear,110,2013-07-01 01:55:00
8:15 PM,75.2,53.6,47,30.18,10.0,ESE,8.1,-,N/A,,Clear,110,2013-07-01 02:15:00
8:35 PM,75.2,55.4,50,30.18,10.0,East,8.1,-,N/A,,Clear,90,2013-07-01 02:35:00
8:55 PM,73.4,55.4,53,30.19,10.0,East,6.9,-,N/A,,Clear,90,2013-07-01 02:55:00
9:15 PM,69.8,55.4,60,30.19,10.0,East,6.9,-,N/A,,Clear,80,2013-07-01 03:15:00
9:35 PM,69.8,55.4,60,30.20,10.0,East,9.2,-,N/A,,Clear,90,2013-07-01 03:35:00
9:55 PM,69.8,55.4,60,30.21,10.0,East,8.1,-,N/A,,Clear,90,2013-07-01 03:55:00
10:15 PM,69.8,55.4,60,30.21,10.0,East,6.9,-,N/A,,Clear,90,2013-07-01 04:15:00
10:35 PM,68.0,55.4,64,30.21,10.0,East,6.9,-,N/A,,Clear,100,2013-07-01 04:35:00
10:55 PM,69.8,55.4,60,30.21,10.0,ESE,10.4,-,N/A,,Clear,120,2013-07-01 04:55:00
11:15 PM,69.8,55.4,60,30.21,10.0,ESE,9.2,-,N/A,,Clear,120,2013-07-01 05:15:00
11:35 PM,69.8,55.4,60,30.21,10.0,SE,8.1,-,N/A,,Clear,130,2013-07-01 05:35:00
11:55 PM,69.8,55.4,60,30.21,10.0,SE,9.2,-,N/A,,Clear,130,2013-07-01 05:55:00